• In Netherlands
  • List of Countries
  • For 7 days
  • Water Temperature
  • Satellite Maps
  • Weather Map
  • Weather Widgets
  • user-avatar
    Login

    Hourly Weather Liege

    Today, 30 April, Sunday

    Time Temperature Precipitation Wind Pressure Humidity
    00:00 +4°C° 0 mm 4 mps 751 mmHg 82%
    01:00 +4°C° 0 mm 4 mps 751 mmHg 82%
    02:00 +3°C° 0 mm 5 mps 751 mmHg 81%
    03:00 +3°C° 0 mm 5 mps 750 mmHg 81%
    04:00 +5°C° 0 mm 5 mps 750 mmHg 80%
    05:00 +5°C° 0 mm 6 mps 750 mmHg 79%
    06:00 +6°C° 0 mm 5 mps 750 mmHg 77%
    07:00 +8°C° 0 mm 6 mps 749 mmHg 73%
    08:00 +10°C° 0 mm 7 mps 749 mmHg 68%
    09:00 +12°C° 0 mm 8 mps 748 mmHg 64%
    10:00 +13°C° 0 mm 8 mps 748 mmHg 62%
    11:00 +15°C° 0 mm 8 mps 747 mmHg 60%
    12:00 +16°C° 0 mm 8 mps 747 mmHg 59%
    13:00 +16°C° 0 mm 8 mps 746 mmHg 59%
    14:00 +16°C° 0 mm 7 mps 746 mmHg 60%
    15:00 +16°C° 0 mm 7 mps 745 mmHg 61%
    16:00 +15°C° 0 mm 6 mps 745 mmHg 66%
    17:00 +14°C° 0 mm 6 mps 745 mmHg 70%
    18:00 +13°C° 0 mm 5 mps 744 mmHg 75%
    19:00 +13°C° 0 mm 6 mps 744 mmHg 73%
    20:00 +12°C° 0 mm 7 mps 744 mmHg 70%
    21:00 +11°C° 0 mm 7 mps 744 mmHg 68%
    22:00 +11°C° 0 mm 7 mps 744 mmHg 70%
    23:00 +11°C° 0 mm 6 mps 744 mmHg 73%

    Tomorrow, 1 May, Monday

    Time Temperature Precipitation Wind Pressure Humidity
    00:00 +11°C° 0 mm 6 mps 744 mmHg 75%
    01:00 +10°C° 0.3 mm 5 mps 745 mmHg 81%
    02:00 +9°C° 0.3 mm 5 mps 745 mmHg 86%
    03:00 +8°C° 0.3 mm 4 mps 745 mmHg 92%
    04:00 +7°C° 0.7 mm 4 mps 746 mmHg 92%
    05:00 +7°C° 0.7 mm 4 mps 746 mmHg 92%
    06:00 +6°C° 0.7 mm 4 mps 747 mmHg 93%
    07:00 +7°C° 0.1 mm 4 mps 747 mmHg 90%
    08:00 +8°C° 0.1 mm 4 mps 748 mmHg 87%
    09:00 +9°C° 0.1 mm 3 mps 748 mmHg 84%
    10:00 +10°C° 0.3 mm 3 mps 748 mmHg 84%
    11:00 +10°C° 0.3 mm 3 mps 749 mmHg 84%
    12:00 +10°C° 0.3 mm 3 mps 749 mmHg 84%
    13:00 +10°C° 0.3 mm 2 mps 749 mmHg 83%
    14:00 +12°C° 0.3 mm 2 mps 750 mmHg 81%
    15:00 +12°C° 0.3 mm 2 mps 750 mmHg 80%
    16:00 +12°C° 0.1 mm 2 mps 750 mmHg 82%
    17:00 +10°C° 0.1 mm 2 mps 750 mmHg 85%
    18:00 +11°C° 0.1 mm 1 mps 750 mmHg 88%
    19:00 +10°C° 0 mm 1 mps 751 mmHg 89%
    20:00 +8°C° 0 mm 1 mps 751 mmHg 91%
    21:00 +7°C° 0 mm 1 mps 751 mmHg 92%
    22:00 +7°C° 0 mm 1 mps 752 mmHg 92%
    23:00 +6°C° 0 mm 2 mps 752 mmHg 92%

    Day after tomorrow, 2 May, Tuesday

    Time Temperature Precipitation Wind Pressure Humidity
    00:00 +6°C° 0 mm 2 mps 752 mmHg 92%
    01:00 +6°C° 0 mm 2 mps 752 mmHg 92%
    02:00 +6°C° 0 mm 2 mps 752 mmHg 92%
    03:00 +6°C° 0 mm 2 mps 752 mmHg 92%
    04:00 +6°C° 0 mm 2 mps 752 mmHg 92%
    05:00 +7°C° 0 mm 2 mps 752 mmHg 91%
    06:00 +7°C° 0 mm 2 mps 752 mmHg 91%
    07:00 +8°C° 0.1 mm 2 mps 752 mmHg 87%
    08:00 +10°C° 0.1 mm 2 mps 752 mmHg 83%
    09:00 +12°C° 0.1 mm 2 mps 752 mmHg 79%
    10:00 +13°C° 0.2 mm 2 mps 752 mmHg 77%
    11:00 +13°C° 0.2 mm 2 mps 752 mmHg 74%
    12:00 +14°C° 0.2 mm 2 mps 752 mmHg 72%
    13:00 +14°C° 0.2 mm 2 mps 752 mmHg 73%
    14:00 +14°C° 0.2 mm 2 mps 752 mmHg 73%
    15:00 +14°C° 0.2 mm 2 mps 752 mmHg 74%
    16:00 +13°C° 0.2 mm 2 mps 752 mmHg 79%
    17:00 +13°C° 0.2 mm 2 mps 752 mmHg 84%
    18:00 +12°C° 0.2 mm 1 mps 752 mmHg 88%
    19:00 +10°C° 0.1 mm 1 mps 752 mmHg 91%
    20:00 +9°C° 0.1 mm 1 mps 753 mmHg 94%
    21:00 +7°C° 0.1 mm 1 mps 753 mmHg 97%
    22:00 +7°C° 0.1 mm 1 mps 753 mmHg 97%
    23:00 +7°C° 0.1 mm 1 mps 753 mmHg 98%

    3 May, Wednesday

    Time Temperature Precipitation Wind Pressure Humidity
    00:00 +6°C° 0.1 mm 1 mps 753 mmHg 98%
    01:00 +6°C° 0.3 mm 1 mps 753 mmHg 98%
    02:00 +6°C° 0.3 mm 1 mps 753 mmHg 98%
    03:00 +7°C° 0.3 mm 1 mps 753 mmHg 98%
    04:00 +7°C° 0.2 mm 1 mps 753 mmHg 97%
    05:00 +8°C° 0.2 mm 1 mps 753 mmHg 96%
    06:00 +9°C° 0.2 mm 1 mps 753 mmHg 95%
    07:00 +10°C° 0.2 mm 1 mps 753 mmHg 92%
    08:00 +11°C° 0.2 mm 1 mps 753 mmHg 88%
    09:00 +13°C° 0.2 mm 1 mps 753 mmHg 85%
    10:00 +13°C° 0.3 mm 2 mps 753 mmHg 84%
    11:00 +13°C° 0.3 mm 2 mps 753 mmHg 82%
    12:00 +14°C° 0.3 mm 2 mps 753 mmHg 81%
    13:00 +14°C° 0.5 mm 2 mps 753 mmHg 82%
    14:00 +14°C° 0.5 mm 2 mps 752 mmHg 83%
    15:00 +13°C° 0.5 mm 3 mps 752 mmHg 84%
    16:00 +13°C° 0.4 mm 3 mps 752 mmHg 86%
    17:00 +12°C° 0.4 mm 3 mps 752 mmHg 89%
    18:00 +11°C° 0.4 mm 3 mps 752 mmHg 92%
    19:00 +10°C° 0.2 mm 3 mps 752 mmHg 94%
    20:00 +9°C° 0.2 mm 2 mps 752 mmHg 95%
    21:00 +8°C° 0.2 mm 2 mps 752 mmHg 96%
    22:00 +7°C° 0.1 mm 2 mps 752 mmHg 97%
    23:00 +7°C° 0.1 mm 2 mps 752 mmHg 97%

    4 May, Thursday

    Time Temperature Precipitation Wind Pressure Humidity
    00:00 +7°C° 0.1 mm 1 mps 752 mmHg 98%
    01:00 +7°C° 0.3 mm 1 mps 752 mmHg 98%
    02:00 +6°C° 0.3 mm 2 mps 752 mmHg 98%
    03:00 +6°C° 0.3 mm 2 mps 752 mmHg 99%
    04:00 +7°C° 0.3 mm 2 mps 752 mmHg 98%
    05:00 +8°C° 0.3 mm 3 mps 752 mmHg 97%
    06:00 +9°C° 0.3 mm 3 mps 752 mmHg 96%
    07:00 +8°C° 0.2 mm 4 mps 752 mmHg 95%
    08:00 +10°C° 0.2 mm 4 mps 752 mmHg 93%
    09:00 +10°C° 0.2 mm 4 mps 752 mmHg 92%
    10:00 +10°C° 0.1 mm 4 mps 752 mmHg 91%
    11:00 +10°C° 0.1 mm 5 mps 752 mmHg 89%
    12:00 +10°C° 0.1 mm 5 mps 752 mmHg 88%
    13:00 +11°C° 0.1 mm 4 mps 752 mmHg 88%
    14:00 +12°C° 0.1 mm 4 mps 752 mmHg 87%
    15:00 +12°C° 0.1 mm 4 mps 752 mmHg 87%
    16:00 +11°C° 0.1 mm 4 mps 752 mmHg 88%
    17:00 +11°C° 0.1 mm 4 mps 752 mmHg 90%
    18:00 +11°C° 0.1 mm 4 mps 753 mmHg 91%
    19:00 +10°C° 0 mm 4 mps 753 mmHg 93%
    20:00 +10°C° 0 mm 3 mps 753 mmHg 94%
    21:00 +9°C° 0 mm 3 mps 754 mmHg 96%
    22:00 +9°C° 0 mm 3 mps 754 mmHg 96%
    23:00 +9°C° 0 mm 3 mps 754 mmHg 96%

    5 May, Friday

    Time Temperature Precipitation Wind Pressure Humidity
    00:00 +9°C° 0 mm 3 mps 754 mmHg 97%
    01:00 +9°C° 0 mm 3 mps 754 mmHg 97%
    02:00 +9°C° 0 mm 3 mps 754 mmHg 97%
    03:00 +9°C° 0 mm 3 mps 755 mmHg 97%
    04:00 +9°C° 0 mm 3 mps 755 mmHg 96%
    05:00 +9°C° 0 mm 3 mps 755 mmHg 95%
    06:00 +9°C° 0 mm 3 mps 755 mmHg 95%
    07:00 +10°C° 0 mm 3 mps 755 mmHg 92%
    08:00 +11°C° 0 mm 4 mps 755 mmHg 90%
    09:00 +11°C° 0 mm 4 mps 756 mmHg 88%
    10:00 +12°C° 0 mm 4 mps 755 mmHg 86%
    11:00 +13°C° 0 mm 4 mps 755 mmHg 84%
    12:00 +13°C° 0 mm 4 mps 755 mmHg 81%
    13:00 +14°C° 0 mm 4 mps 755 mmHg 80%
    14:00 +14°C° 0 mm 5 mps 755 mmHg 79%
    15:00 +14°C° 0 mm 5 mps 754 mmHg 78%
    16:00 +14°C° 0 mm 5 mps 754 mmHg 81%
    17:00 +13°C° 0 mm 4 mps 754 mmHg 83%
    18:00 +12°C° 0 mm 4 mps 754 mmHg 85%
    19:00 +11°C° 0 mm 4 mps 755 mmHg 88%
    20:00 +10°C° 0 mm 4 mps 755 mmHg 90%
    21:00 +8°C° 0 mm 4 mps 755 mmHg 93%
    22:00 +7°C° 0 mm 4 mps 754 mmHg 94%
    23:00 +7°C° 0 mm 4 mps 754 mmHg 94%
    Show more